START_TIME,STEP,MOV.,M29,t_acc.,H22,t_acc.,H26,t_acc.,H30,t_acc.
1979-08-01 09:00:30.800 ,0,0,0.,24.0,0.,24.0,0.,24.0,0.,24.0
1979-08-01 09:00:54.800 ,0,1,0.,24.0,0.,24.0,0.,24.0,0.,24.0
1979-08-01 09:01:18.800 ,0,0,0.,24.0,0.,24.0,0.,24.0,0.,24.0
1979-08-01 09:01:42.800 ,0,0,0.,24.0,0.,24.0,0.,24.0,0.,24.0
1979-08-01 09:02:06.800 ,0,0,0.,24.0,0.,24.0,0.,24.0,0.,24.0
1979-08-01 09:02:30.800 ,2,1,0.,24.0,0.,24.0,0.,24.0,0.,24.0
1979-08-01 09:02:54.800 ,2,0,0.,24.0,0.,24.0,0.,24.0,0.,24.0
1979-08-01 09:03:18.800 ,3,1,0.,24.0,0.,24.0,0.,24.0,1.,24.0
1979-08-01 09:03:42.800 ,3,0,0.,24.0,0.,24.0,0.,24.0,0.,24.0
1979-08-01 09:04:06.800 ,4,1,0.,24.0,0.,24.0,0.,24.0,0.,24.0
1979-08-01 09:04:30.800 ,4,0,0.,24.0,0.,24.0,0.,24.0,0.,24.0
1979-08-01 09:04:54.800 ,5,1,0.,24.0,0.,24.0,0.,24.0,0.,24.0
1979-08-01 09:05:18.800 ,0,0,0.,24.0,0.,24.0,0.,24.0,0.,24.0
1979-08-01 09:05:42.800 ,6,1,0.,24.0,0.,24.0,0.,24.0,0.,24.0
1979-08-01 09:06:06.800 ,6,0,0.,24.0,0.,24.0,0.,24.0,0.,24.0
1979-08-01 09:06:30.800 ,7,0,,0,,0,,0,,0
1979-08-01 09:06:54.800 ,7,0,0.,24.0,0.,24.0,0.,24.0,0.,24.0
1979-08-01 09:07:18.800 ,5,1,0.,24.0,0.,24.0,0.,24.0,0.,24.0
1979-08-01 09:07:42.800 ,1,1,0.,24.0,0.,24.0,0.,24.0,0.,24.0
1979-08-01 09:08:06.800 ,2,1,0.,24.0,0.,24.0,0.,24.0,0.,24.0
1979-08-01 09:08:30.800 ,6,1,0.,24.0,0.,24.0,0.,24.0,0.,24.0
1979-08-01 09:08:54.800 ,5,1,0.,24.0,0.,24.0,0.,24.0,0.,24.0
1979-08-01 09:09:18.800 ,1,1,0.,24.0,0.,24.0,0.,24.0,0.,24.0
1979-08-01 09:09:42.800 ,2,1,0.,24.0,0.,24.0,0.,24.0,0.,24.0
1979-08-01 09:10:06.800 ,6,1,0.,24.0,0.,24.0,0.,24.0,0.,24.0
1979-08-01 09:10:30.800 ,3,1,,0,,0,,0,,0
1979-08-01 09:10:54.800 ,1,1,0.,24.0,0.,24.0,0.,24.0,0.,24.0
1979-08-01 09:11:18.800 ,2,1,0.,24.0,0.,24.0,0.,24.0,0.,24.0
1979-08-01 09:11:42.800 ,6,1,0.,24.0,0.,24.0,0.,24.0,0.,24.0
1979-08-01 09:12:06.800 ,5,1,1.,24.0,0.,24.0,0.,24.0,0.,24.0
1979-08-01 09:12:30.800 ,1,1,0.,24.0,0.,24.0,0.,24.0,0.,24.0
1979-08-01 09:12:54.800 ,2,1,1.,24.0,0.,24.0,0.,24.0,0.,24.0
1979-08-01 09:13:18.800 ,6,1,0.,24.0,0.,24.0,0.,24.0,0.,24.0
1979-08-01 09:13:42.800 ,5,1,0.,24.0,0.,24.0,0.,24.0,0.,24.0
1979-08-01 09:14:06.800 ,1,1,0.,24.0,0.,24.0,0.,24.0,0.,24.0
1979-08-01 09:14:30.800 ,4,1,,0,,0,,0,,0
1979-08-01 09:14:54.800 ,6,1,0.,24.0,0.,24.0,0.,24.0,0.,24.0
1979-08-01 09:15:18.800 ,5,1,0.,24.0,0.,24.0,0.,24.0,0.,24.0
1979-08-01 09:15:42.800 ,1,1,0.,24.0,0.,24.0,0.,24.0,0.,24.0
1979-08-01 09:16:06.800 ,2,1,0.,24.0,0.,24.0,0.,24.0,0.,24.0
1979-08-01 09:16:30.800 ,6,1,0.,24.0,0.,24.0,0.,24.0,0.,24.0
1979-08-01 09:16:54.800 ,5,1,0.,24.0,0.,24.0,0.,24.0,0.,24.0
1979-08-01 09:17:18.800 ,1,1,0.,24.0,0.,24.0,0.,24.0,0.,24.0
1979-08-01 09:17:42.800 ,0,0,0.,24.0,0.,24.0,0.,24.0,0.,24.0
1979-08-01 09:18:06.800 ,0,0,0.,24.0,0.,24.0,0.,24.0,0.,24.0
1979-08-01 09:18:30.800 ,5,1,0.,24.0,0.,24.0,0.,24.0,0.,24.0
1979-08-01 09:18:54.800 ,5,0,0.,24.0,0.,24.0,0.,24.0,0.,24.0
1979-08-01 09:19:18.800 ,4,1,0.,24.0,0.,24.0,0.,24.0,0.,24.0
1979-08-01 09:19:42.800 ,4,0,0.,24.0,0.,24.0,0.,24.0,0.,24.0
1979-08-01 09:20:06.800 ,3,1,0.,24.0,0.,24.0,0.,24.0,0.,24.0
1979-08-01 09:20:30.800 ,3,0,0.,24.0,0.,24.0,0.,24.0,0.,24.0
1979-08-01 09:20:54.800 ,2,1,0.,24.0,0.,24.0,0.,24.0,0.,24.0
1979-08-01 09:21:18.800 ,2,0,0.,24.0,0.,24.0,0.,24.0,0.,24.0
1979-08-01 09:21:42.800 ,1,1,0.,24.0,0.,24.0,0.,24.0,0.,24.0
1979-08-01 09:22:06.800 ,1,0,0.,24.0,0.,24.0,0.,24.0,0.,24.0
1979-08-01 09:22:30.800 ,0,1,0.,24.0,0.,24.0,0.,24.0,0.,24.0
1979-08-01 09:22:54.800 ,0,0,0.,24.0,0.,24.0,0.,24.0,0.,24.0
1979-08-01 09:23:18.800 ,0,1,0.,24.0,0.,24.0,0.,24.0,0.,24.0
1979-08-01 09:23:42.800 ,0,0,0.,24.0,0.,24.0,0.,24.0,0.,24.0
1979-08-01 09:24:06.800 ,1,1,0.,24.0,0.,24.0,0.,24.0,0.,24.0
1979-08-01 09:24:30.800 ,1,0,0.,24.0,0.,24.0,0.,24.0,0.,24.0
1979-08-01 09:24:54.800 ,2,1,0.,24.0,0.,24.0,0.,24.0,0.,24.0
1979-08-01 09:25:18.800 ,0,1,0.,24.0,0.,24.0,0.,24.0,0.,24.0
1979-08-01 09:25:42.800 ,3,1,0.,24.0,0.,24.0,0.,24.0,0.,24.0
1979-08-01 09:26:06.800 ,3,0,0.,24.0,0.,24.0,0.,24.0,0.,24.0
1979-08-01 09:26:30.800 ,4,1,0.,24.0,0.,24.0,0.,24.0,0.,24.0
1979-08-01 09:26:54.800 ,4,0,0.,24.0,0.,24.0,0.,24.0,0.,24.0
1979-08-01 09:27:18.800 ,5,1,0.,24.0,0.,24.0,0.,24.0,0.,24.0
1979-08-01 09:27:42.800 ,5,0,0.,24.0,0.,24.0,0.,24.0,0.,24.0
1979-08-01 09:28:06.800 ,6,1,0.,24.0,0.,24.0,0.,24.0,0.,24.0
1979-08-01 09:28:30.800 ,6,0,0.,24.0,0.,24.0,0.,24.0,0.,24.0
1979-08-01 09:28:54.800 ,7,1,0.,24.0,0.,24.0,0.,24.0,0.,24.0
1979-08-01 09:29:18.800 ,7,0,0.,24.0,0.,24.0,0.,24.0,0.,24.0
1979-08-01 09:29:42.800 ,7,1,0.,24.0,0.,24.0,0.,24.0,0.,24.0
1979-08-01 09:30:06.800 ,7,0,0.,24.0,0.,24.0,0.,24.0,0.,24.0
1979-08-01 09:30:30.800 ,6,1,0.,24.0,0.,24.0,0.,24.0,0.,24.0
1979-08-01 09:30:54.800 ,6,0,0.,24.0,0.,24.0,0.,24.0,0.,24.0
1979-08-01 09:31:18.800 ,5,1,0.,24.0,0.,24.0,0.,24.0,0.,24.0
1979-08-01 09:31:42.800 ,5,0,0.,24.0,0.,24.0,0.,24.0,0.,24.0
1979-08-01 09:32:06.800 ,4,1,0.,24.0,0.,24.0,0.,24.0,0.,24.0
1979-08-01 09:32:30.800 ,4,0,0.,24.0,0.,24.0,0.,24.0,0.,24.0
1979-08-01 09:32:54.800 ,3,1,0.,24.0,0.,24.0,0.,24.0,0.,24.0
1979-08-01 09:33:18.800 ,3,0,0.,24.0,0.,24.0,0.,24.0,0.,24.0
1979-08-01 09:33:42.800 ,2,1,0.,24.0,0.,24.0,0.,24.0,0.,24.0
1979-08-01 09:34:06.800 ,2,0,0.,24.0,0.,24.0,0.,24.0,0.,24.0
1979-08-01 09:34:30.800 ,1,1,0.,24.0,0.,24.0,0.,24.0,0.,24.0
1979-08-01 09:34:54.800 ,1,0,0.,24.0,0.,24.0,0.,24.0,0.,24.0
1979-08-01 09:35:18.800 ,0,1,0.,24.0,0.,24.0,0.,24.0,0.,24.0
1979-08-01 09:35:42.800 ,0,0,0.,24.0,0.,24.0,0.,24.0,0.,24.0
1979-08-01 09:36:06.800 ,0,1,0.,24.0,0.,24.0,0.,24.0,0.,24.0
1979-08-01 09:36:30.800 ,0,0,0.,24.0,0.,24.0,0.,24.0,0.,24.0
1979-08-01 09:36:54.800 ,1,1,0.,24.0,0.,24.0,0.,24.0,0.,24.0
1979-08-01 09:37:18.800 ,1,0,0.,24.0,0.,24.0,0.,24.0,0.,24.0
1979-08-01 09:37:42.800 ,2,1,0.,24.0,0.,24.0,0.,24.0,0.,24.0
1979-08-01 09:38:06.800 ,2,0,0.,24.0,0.,24.0,0.,24.0,0.,24.0
1979-08-01 09:38:30.800 ,3,1,0.,24.0,0.,24.0,0.,24.0,0.,24.0
1979-08-01 09:38:54.800 ,3,0,0.,24.0,0.,24.0,0.,24.0,0.,24.0
1979-08-01 09:39:18.800 ,4,1,0.,24.0,0.,24.0,0.,24.0,0.,24.0
1979-08-01 09:39:42.800 ,4,0,0.,24.0,0.,24.0,0.,24.0,0.,24.0
1979-08-01 09:40:06.800 ,5,1,0.,24.0,0.,24.0,0.,24.0,0.,24.0
1979-08-01 09:40:30.800 ,5,0,0.,24.0,0.,24.0,0.,24.0,0.,24.0
1979-08-01 09:40:54.800 ,6,1,0.,24.0,0.,24.0,0.,24.0,0.,24.0
1979-08-01 09:41:18.800 ,6,0,0.,24.0,0.,24.0,0.,24.0,0.,24.0
1979-08-01 09:41:42.800 ,7,1,1.,24.0,0.,24.0,0.,24.0,0.,24.0
1979-08-01 09:42:06.800 ,7,0,0.,24.0,0.,24.0,0.,24.0,0.,24.0
1979-08-01 09:42:30.800 ,7,1,0.,24.0,0.,24.0,0.,24.0,0.,24.0
1979-08-01 09:42:54.800 ,7,0,0.,24.0,0.,24.0,0.,24.0,0.,24.0
1979-08-01 09:43:18.800 ,6,1,0.,24.0,0.,24.0,0.,24.0,0.,24.0
1979-08-01 09:43:42.800 ,6,0,0.,24.0,0.,24.0,0.,24.0,0.,24.0
1979-08-01 09:44:06.800 ,5,1,0.,24.0,0.,24.0,0.,24.0,0.,24.0
1979-08-01 09:44:30.800 ,5,0,0.,24.0,0.,24.0,0.,24.0,0.,24.0
1979-08-01 09:44:54.800 ,4,1,0.,24.0,0.,24.0,0.,24.0,0.,24.0
1979-08-01 09:45:18.800 ,4,0,0.,24.0,0.,24.0,0.,24.0,0.,24.0
1979-08-01 09:45:42.800 ,3,1,0.,24.0,0.,24.0,0.,24.0,0.,24.0
1979-08-01 09:46:06.800 ,3,0,0.,24.0,0.,24.0,0.,24.0,0.,24.0
1979-08-01 09:46:30.800 ,2,1,0.,24.0,0.,24.0,0.,24.0,0.,24.0
1979-08-01 09:46:54.800 ,2,0,0.,24.0,0.,24.0,0.,24.0,0.,24.0
1979-08-01 09:47:18.800 ,1,1,0.,24.0,0.,24.0,0.,24.0,0.,24.0
1979-08-01 09:47:42.800 ,1,0,0.,24.0,0.,24.0,0.,24.0,0.,24.0
1979-08-01 09:48:06.800 ,0,1,0.,24.0,0.,24.0,0.,24.0,0.,24.0
1979-08-01 09:48:30.800 ,0,0,0.,24.0,0.,24.0,0.,24.0,0.,24.0
1979-08-01 09:48:54.800 ,0,1,0.,24.0,0.,24.0,0.,24.0,0.,24.0
1979-08-01 09:49:18.800 ,0,0,0.,24.0,0.,24.0,0.,24.0,0.,24.0
1979-08-01 09:49:42.800 ,1,1,0.,24.0,0.,24.0,0.,24.0,0.,24.0
1979-08-01 09:50:06.800 ,1,0,0.,24.0,0.,24.0,0.,24.0,0.,24.0
1979-08-01 09:50:30.800 ,2,1,0.,24.0,0.,24.0,0.,24.0,0.,24.0
1979-08-01 09:50:54.800 ,2,0,0.,24.0,0.,24.0,0.,24.0,0.,24.0
1979-08-01 09:51:18.800 ,3,1,0.,24.0,0.,24.0,0.,24.0,0.,24.0
1979-08-01 09:51:42.800 ,3,0,0.,24.0,0.,24.0,0.,24.0,0.,24.0
1979-08-01 09:52:06.800 ,4,1,0.,24.0,0.,24.0,0.,24.0,0.,24.0
1979-08-01 09:52:30.800 ,4,0,0.,24.0,0.,24.0,0.,24.0,0.,24.0
1979-08-01 09:52:54.800 ,5,1,0.,24.0,0.,24.0,0.,24.0,0.,24.0
1979-08-01 09:53:18.800 ,5,0,0.,24.0,0.,24.0,0.,24.0,0.,24.0
1979-08-01 09:53:42.800 ,6,1,0.,24.0,0.,24.0,0.,24.0,0.,24.0
1979-08-01 09:54:06.800 ,6,0,0.,24.0,0.,24.0,0.,24.0,0.,24.0
1979-08-01 09:54:30.800 ,7,0,0.,24.0,0.,24.0,0.,24.0,0.,24.0
1979-08-01 09:54:54.800 ,7,0,0.,24.0,0.,24.0,0.,24.0,0.,24.0
1979-08-01 09:55:18.800 ,5,1,0.,24.0,0.,24.0,0.,24.0,0.,24.0
1979-08-01 09:55:42.800 ,1,1,0.,24.0,0.,24.0,0.,24.0,0.,24.0
1979-08-01 09:56:06.800 ,2,1,0.,24.0,0.,24.0,0.,24.0,0.,24.0
1979-08-01 09:56:30.800 ,6,1,0.,24.0,0.,24.0,0.,24.0,0.,24.0
1979-08-01 09:56:54.800 ,3,1,,0,,0,,0,,0
1979-08-01 09:57:18.800 ,1,1,0.,24.0,0.,24.0,0.,24.0,0.,24.0
1979-08-01 09:57:42.800 ,2,1,0.,24.0,0.,24.0,0.,24.0,0.,24.0
1979-08-01 09:58:06.800 ,6,1,0.,24.0,0.,24.0,0.,24.0,0.,24.0
1979-08-01 09:58:30.800 ,5,1,0.,24.0,0.,24.0,0.,24.0,0.,24.0
1979-08-01 09:58:54.800 ,0,1,,0,,0,,0,,0
1979-08-01 09:59:18.800 ,2,1,0.,24.0,0.,24.0,0.,24.0,0.,24.0
1979-08-01 09:59:42.800 ,6,1,0.,24.0,0.,24.0,0.,24.0,0.,24.0
1979-08-01 10:00:06.800 ,5,1,0.,24.0,0.,24.0,0.,24.0,0.,24.0
1979-08-01 10:00:30.800 ,1,1,0.,24.0,0.,24.0,0.,24.0,0.,24.0
1979-08-01 10:00:54.800 ,2,1,0.,24.0,0.,24.0,0.,24.0,0.,24.0
1979-08-01 10:01:18.800 ,6,1,0.,24.0,0.,24.0,0.,24.0,0.,24.0
1979-08-01 10:01:42.800 ,5,1,0.,24.0,0.,24.0,0.,24.0,0.,24.0
1979-08-01 10:02:06.800 ,1,1,0.,24.0,0.,24.0,0.,24.0,0.,24.0
1979-08-01 10:02:30.800 ,2,1,0.,24.0,0.,24.0,0.,24.0,0.,24.0
1979-08-01 10:02:54.800 ,6,1,0.,24.0,0.,24.0,0.,24.0,0.,24.0
1979-08-01 10:03:18.800 ,5,1,0.,24.0,0.,24.0,0.,24.0,0.,24.0
1979-08-01 10:03:42.800 ,1,1,0.,24.0,0.,24.0,0.,24.0,0.,24.0
1979-08-01 10:04:06.800 ,0,0,0.,24.0,0.,24.0,0.,24.0,0.,24.0
1979-08-01 10:04:30.800 ,6,1,0.,24.0,0.,24.0,0.,24.0,0.,24.0
1979-08-01 10:04:54.800 ,5,1,0.,24.0,0.,24.0,0.,24.0,0.,24.0
1979-08-01 10:05:18.800 ,1,1,0.,24.0,0.,24.0,0.,24.0,0.,24.0
1979-08-01 10:05:42.800 ,0,0,0.,24.0,0.,24.0,0.,24.0,0.,24.0
1979-08-01 10:06:06.800 ,0,0,0.,24.0,0.,24.0,0.,24.0,0.,24.0
1979-08-01 10:06:30.800 ,5,1,0.,24.0,0.,24.0,0.,24.0,0.,24.0
1979-08-01 10:06:54.800 ,5,0,0.,24.0,0.,24.0,0.,24.0,0.,24.0
1979-08-01 10:07:18.800 ,4,1,0.,24.0,0.,24.0,0.,24.0,0.,24.0
1979-08-01 10:07:42.800 ,4,0,0.,24.0,0.,24.0,0.,24.0,0.,24.0
1979-08-01 10:08:06.800 ,3,1,0.,24.0,0.,24.0,0.,24.0,0.,24.0
1979-08-01 10:08:30.800 ,3,0,0.,24.0,0.,24.0,0.,24.0,0.,24.0
1979-08-01 10:08:54.800 ,2,1,0.,24.0,0.,24.0,0.,24.0,0.,24.0
1979-08-01 10:09:18.800 ,2,0,0.,24.0,0.,24.0,0.,24.0,0.,24.0
1979-08-01 10:09:42.800 ,1,1,0.,24.0,0.,24.0,0.,24.0,0.,24.0
1979-08-01 10:10:06.800 ,1,0,1.,24.0,0.,24.0,0.,24.0,0.,24.0
1979-08-01 10:10:30.800 ,0,1,0.,24.0,0.,24.0,0.,24.0,0.,24.0
1979-08-01 10:10:54.800 ,0,0,0.,24.0,0.,24.0,0.,24.0,0.,24.0
1979-08-01 10:11:18.800 ,0,1,0.,24.0,0.,24.0,0.,24.0,0.,24.0
1979-08-01 10:11:42.800 ,0,0,0.,24.0,0.,24.0,0.,24.0,0.,24.0
1979-08-01 10:12:06.800 ,1,1,0.,24.0,0.,24.0,0.,24.0,0.,24.0
1979-08-01 10:12:30.800 ,1,0,0.,24.0,0.,24.0,0.,24.0,0.,24.0
1979-08-01 10:12:54.800 ,2,1,0.,24.0,0.,24.0,0.,24.0,0.,24.0
1979-08-01 10:13:18.800 ,2,0,0.,24.0,0.,24.0,0.,24.0,0.,24.0
1979-08-01 10:13:42.800 ,3,1,0.,24.0,0.,24.0,0.,24.0,0.,24.0
1979-08-01 10:14:06.800 ,3,0,0.,24.0,0.,24.0,0.,24.0,0.,24.0
1979-08-01 10:14:30.800 ,4,1,0.,24.0,0.,24.0,0.,24.0,0.,24.0
1979-08-01 10:14:54.800 ,4,0,0.,24.0,0.,24.0,0.,24.0,0.,24.0
1979-08-01 10:15:18.800 ,5,1,0.,24.0,0.,24.0,0.,24.0,0.,24.0
1979-08-01 10:15:42.800 ,5,0,0.,24.0,0.,24.0,0.,24.0,0.,24.0
1979-08-01 10:16:06.800 ,6,1,0.,24.0,0.,24.0,0.,24.0,0.,24.0
1979-08-01 10:16:30.800 ,6,0,0.,24.0,0.,24.0,0.,24.0,0.,24.0
1979-08-01 10:16:54.800 ,7,1,0.,24.0,0.,24.0,0.,24.0,0.,24.0
1979-08-01 10:17:18.800 ,0,0,0.,24.0,0.,24.0,0.,24.0,0.,24.0
1979-08-01 10:17:42.800 ,7,1,1.,24.0,0.,24.0,0.,24.0,0.,24.0
1979-08-01 10:18:06.800 ,7,0,0.,24.0,0.,24.0,0.,24.0,0.,24.0
1979-08-01 10:18:30.800 ,6,1,0.,24.0,0.,24.0,0.,24.0,0.,24.0
1979-08-01 10:18:54.800 ,6,0,0.,24.0,0.,24.0,0.,24.0,0.,24.0
1979-08-01 10:19:18.800 ,5,1,0.,24.0,0.,24.0,0.,24.0,0.,24.0
1979-08-01 10:19:42.800 ,5,0,0.,24.0,0.,24.0,0.,24.0,0.,24.0
1979-08-01 10:20:06.800 ,4,1,0.,24.0,0.,24.0,0.,24.0,0.,24.0
1979-08-01 10:20:30.800 ,4,0,0.,24.0,0.,24.0,0.,24.0,0.,24.0
1979-08-01 10:20:54.800 ,3,1,0.,24.0,0.,24.0,0.,24.0,0.,24.0
1979-08-01 10:21:18.800 ,3,0,0.,24.0,0.,24.0,0.,24.0,0.,24.0
1979-08-01 10:21:42.800 ,2,1,0.,24.0,0.,24.0,0.,24.0,0.,24.0
1979-08-01 10:22:06.800 ,2,0,0.,24.0,0.,24.0,0.,24.0,0.,24.0
1979-08-01 10:22:30.800 ,1,1,0.,24.0,0.,24.0,0.,24.0,0.,24.0
1979-08-01 10:22:54.800 ,1,0,0.,24.0,0.,24.0,0.,24.0,0.,24.0
1979-08-01 10:23:18.800 ,0,1,0.,24.0,0.,24.0,0.,24.0,0.,24.0
1979-08-01 10:23:42.800 ,0,0,0.,24.0,0.,24.0,0.,24.0,0.,24.0
1979-08-01 10:24:06.800 ,0,1,0.,24.0,0.,24.0,0.,24.0,0.,24.0
1979-08-01 10:24:30.800 ,0,0,0.,24.0,0.,24.0,0.,24.0,0.,24.0
1979-08-01 10:24:54.800 ,1,1,0.,24.0,0.,24.0,0.,24.0,0.,24.0
1979-08-01 10:25:18.800 ,1,0,0.,24.0,0.,24.0,0.,24.0,0.,24.0
1979-08-01 10:25:42.800 ,2,1,0.,24.0,0.,24.0,0.,24.0,0.,24.0
1979-08-01 10:26:06.800 ,2,0,0.,24.0,0.,24.0,0.,24.0,0.,24.0
1979-08-01 10:26:30.800 ,3,1,0.,24.0,0.,24.0,0.,24.0,0.,24.0
1979-08-01 10:26:54.800 ,3,0,0.,24.0,0.,24.0,0.,24.0,0.,24.0
1979-08-01 10:27:18.800 ,4,1,0.,24.0,0.,24.0,0.,24.0,0.,24.0
1979-08-01 10:27:42.800 ,4,0,0.,24.0,0.,24.0,0.,24.0,0.,24.0
1979-08-01 10:28:06.800 ,5,1,0.,24.0,0.,24.0,0.,24.0,0.,24.0
1979-08-01 10:28:30.800 ,5,0,0.,24.0,0.,24.0,0.,24.0,0.,24.0
1979-08-01 10:28:54.800 ,6,1,0.,24.0,0.,24.0,0.,24.0,0.,24.0
1979-08-01 10:29:18.800 ,6,0,0.,24.0,0.,24.0,0.,24.0,0.,24.0
1979-08-01 10:29:42.800 ,7,1,0.,24.0,0.,24.0,0.,24.0,0.,24.0
1979-08-01 10:30:06.800 ,7,0,0.,24.0,0.,24.0,0.,24.0,0.,24.0
1979-08-01 10:30:30.800 ,7,1,0.,24.0,0.,24.0,0.,24.0,0.,24.0
1979-08-01 10:30:54.800 ,7,0,0.,24.0,0.,24.0,0.,24.0,0.,24.0
1979-08-01 10:31:18.800 ,6,1,0.,24.0,0.,24.0,0.,24.0,0.,24.0
1979-08-01 10:31:42.800 ,6,0,0.,24.0,0.,24.0,0.,24.0,0.,24.0
1979-08-01 10:32:06.790 ,5,1,0.,24.0,0.,24.0,0.,24.0,0.,24.0
1979-08-01 10:32:30.790 ,5,0,0.,24.0,0.,24.0,0.,24.0,0.,24.0
1979-08-01 10:32:54.790 ,4,1,0.,24.0,0.,24.0,0.,24.0,0.,24.0
1979-08-01 10:33:18.790 ,4,0,0.,24.0,0.,24.0,0.,24.0,0.,24.0
1979-08-01 10:33:42.790 ,3,1,0.,24.0,0.,24.0,0.,24.0,0.,24.0
1979-08-01 10:34:06.790 ,3,0,0.,24.0,0.,24.0,0.,24.0,0.,24.0
1979-08-01 10:34:30.790 ,2,1,0.,24.0,0.,24.0,0.,24.0,0.,24.0
1979-08-01 10:34:54.790 ,2,0,0.,24.0,0.,24.0,0.,24.0,0.,24.0
1979-08-01 10:35:18.790 ,1,1,0.,24.0,0.,24.0,0.,24.0,0.,24.0
1979-08-01 10:35:42.790 ,1,0,0.,24.0,0.,24.0,0.,24.0,0.,24.0
1979-08-01 10:36:06.790 ,0,1,0.,24.0,0.,24.0,0.,24.0,0.,24.0
1979-08-01 10:36:30.790 ,0,0,0.,24.0,0.,24.0,0.,24.0,0.,24.0
1979-08-01 10:36:54.790 ,0,1,0.,24.0,0.,24.0,0.,24.0,0.,24.0
1979-08-01 10:37:18.790 ,0,0,0.,24.0,0.,24.0,0.,24.0,0.,24.0
1979-08-01 10:37:42.790 ,1,1,0.,24.0,0.,24.0,0.,24.0,0.,24.0
1979-08-01 10:38:06.790 ,1,0,0.,24.0,0.,24.0,0.,24.0,0.,24.0
1979-08-01 10:38:30.790 ,2,1,0.,24.0,0.,24.0,0.,24.0,0.,24.0
1979-08-01 10:38:54.790 ,0,1,0.,24.0,0.,24.0,0.,24.0,0.,24.0
1979-08-01 10:39:18.790 ,3,1,0.,24.0,0.,24.0,0.,24.0,0.,24.0
1979-08-01 10:39:42.790 ,3,0,0.,24.0,0.,24.0,0.,24.0,0.,24.0
1979-08-01 10:40:06.790 ,0,0,0.,24.0,0.,24.0,0.,24.0,0.,24.0
1979-08-01 10:40:30.790 ,0,0,0.,24.0,0.,24.0,0.,24.0,0.,24.0
1979-08-01 10:40:54.790 ,5,1,0.,24.0,0.,24.0,0.,24.0,0.,24.0
1979-08-01 10:41:18.790 ,5,0,0.,24.0,0.,24.0,0.,24.0,0.,24.0
1979-08-01 10:41:42.790 ,6,1,0.,24.0,0.,24.0,0.,24.0,0.,24.0
1979-08-01 10:42:06.790 ,6,0,0.,24.0,0.,24.0,0.,24.0,0.,24.0
1979-08-01 10:42:30.790 ,7,0,0.,24.0,0.,24.0,0.,24.0,0.,24.0
1979-08-01 10:42:54.790 ,7,0,0.,24.0,0.,24.0,0.,24.0,0.,24.0
1979-08-01 10:43:18.790 ,5,1,0.,24.0,0.,24.0,0.,24.0,0.,24.0
1979-08-01 10:43:42.790 ,1,1,0.,24.0,0.,24.0,0.,24.0,0.,24.0
1979-08-01 10:44:06.790 ,2,1,0.,24.0,0.,24.0,0.,24.0,0.,24.0
1979-08-01 10:44:30.790 ,6,1,0.,24.0,0.,24.0,0.,24.0,0.,24.0
1979-08-01 10:44:54.790 ,5,1,0.,24.0,0.,24.0,0.,24.0,0.,24.0
1979-08-01 10:45:18.790 ,1,1,0.,24.0,0.,24.0,0.,24.0,0.,24.0
1979-08-01 10:45:42.790 ,2,1,0.,24.0,0.,24.0,0.,24.0,0.,24.0
1979-08-01 10:46:06.790 ,6,1,0.,24.0,0.,24.0,0.,24.0,0.,24.0
1979-08-01 10:46:30.790 ,5,1,0.,24.0,0.,24.0,0.,24.0,0.,24.0
1979-08-01 10:46:54.790 ,1,1,0.,24.0,0.,24.0,0.,24.0,0.,24.0
1979-08-01 10:47:18.790 ,2,1,0.,24.0,0.,24.0,0.,24.0,0.,24.0
1979-08-01 10:47:42.790 ,6,1,0.,24.0,0.,24.0,0.,24.0,0.,24.0
1979-08-01 10:48:06.790 ,5,1,0.,24.0,0.,24.0,0.,24.0,0.,24.0
1979-08-01 10:48:30.790 ,1,1,0.,24.0,0.,24.0,0.,24.0,0.,24.0
1979-08-01 10:48:54.790 ,2,1,0.,24.0,0.,24.0,0.,24.0,0.,24.0
1979-08-01 10:49:18.790 ,6,1,0.,24.0,0.,24.0,0.,24.0,0.,24.0
1979-08-01 10:49:42.790 ,5,1,0.,24.0,0.,24.0,0.,24.0,0.,24.0
1979-08-01 10:50:06.790 ,1,1,0.,24.0,0.,24.0,0.,24.0,0.,24.0
1979-08-01 10:50:30.790 ,2,1,0.,24.0,0.,24.0,0.,24.0,0.,24.0
1979-08-01 10:50:54.790 ,6,1,0.,24.0,0.,24.0,0.,24.0,0.,24.0
1979-08-01 10:51:18.790 ,5,1,0.,24.0,0.,24.0,0.,24.0,0.,24.0
1979-08-01 10:51:42.790 ,1,1,0.,24.0,0.,24.0,0.,24.0,0.,24.0
1979-08-01 10:52:06.790 ,2,1,0.,24.0,0.,24.0,0.,24.0,0.,24.0
1979-08-01 10:52:30.790 ,6,1,0.,24.0,0.,24.0,0.,24.0,0.,24.0
1979-08-01 10:52:54.790 ,5,1,0.,24.0,0.,24.0,0.,24.0,0.,24.0
1979-08-01 10:53:18.790 ,1,1,0.,24.0,0.,24.0,0.,24.0,0.,24.0
1979-08-01 10:53:42.790 ,0,0,0.,24.0,0.,24.0,0.,24.0,0.,24.0
1979-08-01 10:54:06.790 ,0,0,0.,24.0,0.,24.0,0.,24.0,0.,24.0
1979-08-01 10:54:30.790 ,5,1,0.,24.0,0.,24.0,0.,24.0,0.,24.0
1979-08-01 10:54:54.790 ,5,0,0.,24.0,0.,24.0,0.,24.0,0.,24.0
1979-08-01 10:55:18.790 ,4,1,0.,24.0,0.,24.0,0.,24.0,0.,24.0
1979-08-01 10:55:42.790 ,4,0,0.,24.0,0.,24.0,0.,24.0,0.,24.0
1979-08-01 10:56:06.790 ,3,1,0.,24.0,0.,24.0,0.,24.0,0.,24.0
1979-08-01 10:56:30.790 ,3,0,0.,24.0,0.,24.0,0.,24.0,0.,24.0
1979-08-01 10:56:54.790 ,0,0,0.,24.0,0.,24.0,0.,24.0,0.,24.0
1979-08-01 10:57:18.790 ,0,0,0.,24.0,0.,24.0,0.,24.0,0.,24.0
1979-08-01 10:57:42.790 ,1,1,0.,24.0,0.,24.0,0.,24.0,0.,24.0
1979-08-01 10:58:06.790 ,1,0,0.,24.0,0.,24.0,0.,24.0,0.,24.0
1979-08-01 10:58:30.790 ,0,1,0.,24.0,0.,24.0,0.,24.0,0.,24.0
1979-08-01 10:58:54.790 ,0,0,0.,24.0,0.,24.0,0.,24.0,0.,24.0
1979-08-01 10:59:18.790 ,0,1,0.,24.0,0.,24.0,0.,24.0,0.,24.0
1979-08-01 10:59:42.790 ,0,0,0.,24.0,0.,24.0,0.,24.0,0.,24.0
1979-08-01 11:00:06.790 ,1,1,0.,24.0,0.,24.0,0.,24.0,0.,24.0
1979-08-01 11:00:30.790 ,1,0,0.,24.0,0.,24.0,0.,24.0,0.,24.0
1979-08-01 11:00:54.790 ,2,1,0.,24.0,0.,24.0,0.,24.0,0.,24.0
1979-08-01 11:01:18.790 ,2,0,0.,24.0,0.,24.0,0.,24.0,0.,24.0
1979-08-01 11:01:42.790 ,3,1,0.,24.0,0.,24.0,0.,24.0,0.,24.0
1979-08-01 11:02:06.790 ,3,0,0.,24.0,0.,24.0,0.,24.0,0.,24.0
1979-08-01 11:02:30.790 ,4,1,0.,24.0,0.,24.0,0.,24.0,0.,24.0
1979-08-01 11:02:54.790 ,4,0,0.,24.0,0.,24.0,0.,24.0,0.,24.0
1979-08-01 11:07:16.390 ,0,0,,0,,0,,0,,0
1979-08-01 11:07:18.790 ,0,0,0.,24.0,0.,24.0,0.,24.0,0.,24.0
1979-08-01 11:07:42.790 ,0,0,0.,24.0,0.,24.0,0.,24.0,0.,24.0
1979-08-01 11:08:06.790 ,4,1,0.,24.0,0.,24.0,0.,24.0,0.,24.0
1979-08-01 11:08:30.790 ,4,0,0.,24.0,0.,24.0,0.,24.0,0.,24.0
1979-08-01 11:08:54.790 ,3,1,0.,24.0,0.,24.0,0.,24.0,0.,24.0
1979-08-01 11:09:18.790 ,3,0,0.,24.0,0.,24.0,0.,24.0,0.,24.0
1979-08-01 11:09:42.790 ,2,1,0.,24.0,0.,24.0,0.,24.0,0.,24.0
1979-08-01 11:10:06.790 ,2,0,0.,24.0,0.,24.0,0.,24.0,0.,24.0
1979-08-01 11:10:30.790 ,1,1,0.,24.0,0.,24.0,0.,24.0,0.,24.0
1979-08-01 11:10:54.790 ,1,0,0.,24.0,0.,24.0,0.,24.0,0.,24.0
1979-08-01 11:11:18.790 ,0,1,0.,24.0,0.,24.0,0.,24.0,0.,24.0
1979-08-01 11:11:42.790 ,1,0,1.,24.0,0.,24.0,0.,24.0,1.,24.0
1979-08-01 11:12:06.790 ,0,1,0.,24.0,0.,24.0,0.,24.0,0.,24.0
1979-08-01 11:12:30.790 ,0,0,0.,24.0,0.,24.0,0.,24.0,0.,24.0
1979-08-01 11:12:54.790 ,1,0,,0,,0,,0,,0
1979-08-01 11:13:18.790 ,1,0,0.,24.0,0.,24.0,0.,24.0,0.,24.0
1979-08-01 11:13:42.790 ,2,1,0.,24.0,0.,24.0,0.,24.0,0.,24.0
1979-08-01 11:14:06.790 ,2,0,0.,24.0,0.,24.0,0.,24.0,0.,24.0
1979-08-01 11:14:30.790 ,3,1,0.,24.0,0.,24.0,0.,24.0,0.,24.0
1979-08-01 11:14:54.790 ,3,0,0.,24.0,0.,24.0,0.,24.0,0.,24.0
1979-08-01 11:15:18.790 ,4,1,0.,24.0,0.,24.0,0.,24.0,0.,24.0
1979-08-01 11:15:42.790 ,4,0,0.,24.0,0.,24.0,0.,24.0,0.,24.0
1979-08-01 11:16:06.790 ,5,1,0.,24.0,0.,24.0,0.,24.0,0.,24.0
1979-08-01 11:16:30.790 ,5,0,0.,24.0,0.,24.0,0.,24.0,0.,24.0
1979-08-01 11:16:54.790 ,6,1,0.,24.0,0.,24.0,0.,24.0,0.,24.0
1979-08-01 11:17:18.790 ,6,0,0.,24.0,0.,24.0,0.,24.0,0.,24.0
1979-08-01 11:17:42.790 ,7,1,0.,24.0,0.,24.0,0.,24.0,0.,24.0
1979-08-01 11:18:06.790 ,0,0,1.,24.0,0.,24.0,2.,24.0,0.,24.0
1979-08-01 11:18:30.790 ,7,1,0.,24.0,0.,24.0,0.,24.0,0.,24.0
1979-08-01 11:18:54.790 ,7,0,0.,24.0,0.,24.0,0.,24.0,0.,24.0
1979-08-01 11:19:18.790 ,6,1,0.,24.0,0.,24.0,0.,24.0,0.,24.0
1979-08-01 11:19:42.790 ,6,0,0.,24.0,0.,24.0,0.,24.0,0.,24.0
1979-08-01 11:20:06.790 ,5,1,0.,24.0,0.,24.0,0.,24.0,0.,24.0
1979-08-01 11:20:30.790 ,5,0,0.,24.0,0.,24.0,0.,24.0,0.,24.0
1979-08-01 11:20:54.790 ,4,1,0.,24.0,0.,24.0,0.,24.0,0.,24.0
1979-08-01 11:21:18.790 ,4,0,0.,24.0,0.,24.0,0.,24.0,0.,24.0
1979-08-01 11:21:42.790 ,3,1,0.,24.0,0.,24.0,0.,24.0,0.,24.0
1979-08-01 11:22:06.790 ,3,0,0.,24.0,0.,24.0,0.,24.0,0.,24.0
1979-08-01 11:22:30.790 ,2,1,0.,24.0,0.,24.0,0.,24.0,0.,24.0
1979-08-01 11:22:54.790 ,2,0,1.,24.0,0.,24.0,0.,24.0,0.,24.0
1979-08-01 11:23:18.790 ,1,1,0.,24.0,0.,24.0,0.,24.0,0.,24.0
1979-08-01 11:23:42.790 ,1,0,0.,24.0,0.,24.0,0.,24.0,0.,24.0
1979-08-01 11:24:06.790 ,0,1,0.,24.0,0.,24.0,0.,24.0,0.,24.0
1979-08-01 11:24:30.790 ,0,0,0.,24.0,0.,24.0,0.,24.0,0.,24.0
1979-08-01 11:24:54.790 ,0,1,0.,24.0,0.,24.0,0.,24.0,0.,24.0
1979-08-01 11:25:18.790 ,0,0,0.,24.0,0.,24.0,0.,24.0,0.,24.0
1979-08-01 11:25:43.990 ,1,1,0.,24.0,0.,24.0,0.,24.0,0.,24.0
1979-08-01 11:26:06.790 ,1,0,0.,24.0,0.,24.0,0.,24.0,0.,24.0
1979-08-01 11:26:30.790 ,2,1,0.,24.0,0.,24.0,0.,24.0,0.,24.0
1979-08-01 11:26:54.790 ,2,0,0.,24.0,0.,24.0,0.,24.0,0.,24.0
1979-08-01 11:27:18.790 ,3,1,0.,24.0,0.,24.0,0.,24.0,0.,24.0
1979-08-01 11:27:42.790 ,3,0,0.,24.0,0.,24.0,0.,24.0,0.,24.0
1979-08-01 11:28:06.790 ,4,1,0.,24.0,0.,24.0,0.,24.0,0.,24.0
1979-08-01 11:28:30.790 ,4,0,0.,24.0,0.,24.0,0.,24.0,0.,24.0
1979-08-01 11:28:54.790 ,5,1,0.,24.0,0.,24.0,0.,24.0,0.,24.0
1979-08-01 11:29:18.790 ,5,0,0.,24.0,0.,24.0,0.,24.0,0.,24.0
1979-08-01 11:29:42.790 ,6,1,0.,24.0,0.,24.0,0.,24.0,0.,24.0
1979-08-01 11:30:06.790 ,6,0,0.,24.0,0.,24.0,0.,24.0,0.,24.0
1979-08-01 11:30:30.790 ,7,0,0.,24.0,0.,24.0,0.,24.0,0.,24.0
1979-08-01 11:30:54.790 ,7,0,0.,24.0,0.,24.0,0.,24.0,0.,24.0
1979-08-01 11:31:18.790 ,5,1,0.,24.0,0.,24.0,0.,24.0,0.,24.0
1979-08-01 11:31:42.790 ,1,1,0.,24.0,0.,24.0,0.,24.0,0.,24.0
1979-08-01 11:32:06.790 ,4,1,,0,,0,,0,,0
1979-08-01 11:32:30.790 ,6,1,0.,24.0,0.,24.0,0.,24.0,0.,24.0
1979-08-01 11:32:54.790 ,5,1,0.,24.0,0.,24.0,0.,24.0,0.,24.0
1979-08-01 11:33:18.790 ,1,1,0.,24.0,0.,24.0,0.,24.0,0.,24.0
1979-08-01 11:33:42.790 ,2,1,0.,24.0,0.,24.0,0.,24.0,0.,24.0
1979-08-01 11:34:06.790 ,6,1,0.,24.0,0.,24.0,0.,24.0,0.,24.0
1979-08-01 11:34:30.790 ,5,1,0.,24.0,0.,24.0,0.,24.0,0.,24.0
1979-08-01 11:34:54.790 ,1,1,0.,24.0,0.,24.0,0.,24.0,0.,24.0
1979-08-01 11:35:18.790 ,2,1,0.,24.0,0.,24.0,0.,24.0,0.,24.0
1979-08-01 11:35:42.790 ,6,1,0.,24.0,0.,24.0,0.,24.0,0.,24.0
1979-08-01 11:36:54.790 ,0,0,0.,24.0,0.,24.0,0.,24.0,0.,24.0
1979-08-01 11:37:18.790 ,6,1,0.,24.0,0.,24.0,0.,24.0,0.,24.0
1979-08-01 11:37:42.790 ,5,1,0.,24.0,0.,24.0,0.,24.0,0.,24.0
1979-08-01 11:38:06.790 ,1,1,0.,24.0,0.,24.0,0.,24.0,0.,24.0
1979-08-01 11:38:30.790 ,2,1,0.,24.0,0.,24.0,0.,24.0,0.,24.0
1979-08-01 11:38:54.790 ,6,1,0.,24.0,0.,24.0,0.,24.0,0.,24.0
1979-08-01 11:39:18.790 ,5,1,0.,24.0,0.,24.0,0.,24.0,0.,24.0
1979-08-01 11:39:42.790 ,1,1,0.,24.0,0.,24.0,0.,24.0,0.,24.0